INTELSAT 22 (IS-22)

Last updated on June 27, 2019, 3:44 a.m. UTC

1 38098U 12011A   19177.13133959 -.00000053  00000-0  00000+0 0  9990
2 38098   0.0206 309.3745 0003014 157.7824 286.1810  1.00273826 26509
UTC
Height (km)
Latitude
Longitude
Inclination
Orbital Period
UTC large
Height (km)
Speed (km/s)
/
Latitude / Longitude
Inclination (degrees)
Orbital Period (minutes)
Azimuth
Elevation
Range (km)
Doppler Factor
iOS Compass Heading
iOS Angle

Next 30 passes for location: Hong Kong

Rise time Rise Azimuth (degrees) Set time Set Azimuth (degrees) Duration Max altitude (degrees)

No matching passes for this satellites